AJ5TT Weather Reports


Display with metric or nautical units.
time (UTC)temp
F
wind
direction
speed
MPH
gust
MPH
rain 1hr
in
rain 24hr
in
rain mn
in
humidity
%
barometer
mb
20260503004603 71 44 3.0 5.0 0.00 0.35 0.00 50 1019.4
20260503003054 72 34 3.0 8.0 0.00 0.35 0.00 47 1019.2
20260503001557 73 18 3.0 9.0 0.00 0.35 0.00 46 1019.1
20260503000103 74 29 6.0 12.0 0.00 0.35 0.00 44 1018.9
20260502234610 74 26 4.0 10.0 0.00 0.44 0.00 44 1018.9
20260502233055 75 23 5.0 16.0 0.00 0.44 0.00 42 1018.8
20260502231555 75 13 7.0 11.0 0.00 0.44 0.00 40 1018.6
20260502230055 75 352 6.0 14.0 0.00 0.44 0.00 42 1018.6
20260502224555 76 9 4.0 13.0 0.00 0.46 0.00 45 1018.4
20260502223102 75 22 8.0 13.0 0.00 0.46 0.00 41 1018.6
20260502221600 76 55 7.0 13.0 0.00 0.46 0.00 41 1018.6
20260502214613 76 53 6.0 13.0 0.00 0.76 0.00 41 1018.6
20260502213118 75 83 10.0 16.0 0.00 0.76 0.00 41 1018.6
20260502211557 76 34 8.0 16.0 0.00 0.76 0.00 43 1018.6
20260502210056 76 29 8.0 13.0 0.00 0.76 0.00 42 1018.6
20260502204555 75 32 8.0 16.0 0.00 1.20 0.00 41 1018.7
20260502203113 75 34 7.0 17.0 0.00 1.20 0.00 46 1018.9
20260502201556 74 352 8.0 16.0 0.00 1.20 0.00 42 1019.3
20260502200059 74 352 8.0 17.0 0.00 1.20 0.00 43 1019.5
20260502194558 75 28 5.0 15.0 0.00 1.81 0.00 47 1019.6
20260502193057 74 36 9.0 18.0 0.00 1.81 0.00 48 1019.9
20260502191601 74 30 7.0 19.0 0.00 1.81 0.00 47 1020.0
20260502190055 73 35 9.0 17.0 0.00 1.81 0.00 50 1020.0
20260502184554 73 34 9.0 15.0 0.00 1.82 0.00 48 1020.5
20260502183104 73 40 6.0 15.0 0.00 1.82 0.00 50 1020.6
20260502181552 73 30 7.0 14.0 0.00 1.82 0.00 50 1020.8
20260502163109 69 17 7.0 13.0 0.00 2.69 0.00 63 1020.9
20260502161620 68 360 9.0 14.0 0.00 2.69 0.00 64 1020.8
20260502151558 65 55 9.0 16.0 0.00 2.72 0.00 70 1020.8
20260502130107 56 46 6.0 11.0 0.00 2.77 0.00 88 1019.7
20260502123115 55 18 3.0 10.0 0.00 2.86 0.00 88 1019.3
20260502121559 54 19 5.0 9.0 0.00 2.86 0.00 88 1018.8
20260502120110 54 13 5.0 11.0 0.00 2.86 0.00 88 1018.6
20260502114553 54 352 5.0 12.0 0.00 2.86 0.00 88 1018.5
20260502113116 54 34 5.0 10.0 0.00 2.86 0.00 87 1018.3
20260502111558 54 10 4.0 10.0 0.00 2.86 0.00 86 1018.2
20260502110059 54 36 4.0 8.0 0.00 2.86 0.00 86 1017.9
20260502104555 54 10 3.0 6.0 0.00 2.86 0.00 86 1017.8
20260502103100 54 13 4.0 6.0 0.00 2.86 0.00 86 1017.4
20260502101602 54 11 3.0 5.0 0.00 2.86 0.00 86 1017.1
20260502100103 54 29 4.0 9.0 0.00 2.86 0.00 86 1016.7
20260502090103 55 54 5.0 12.0 0.00 2.86 0.00 87 1016.2
20260502070110 57 30 6.0 10.0 0.00 2.86 0.00 90 1016.1
20260502064559 57 25 5.0 10.0 0.00 2.86 0.00 90 1016.0
20260502063101 57 30 5.0 10.0 0.00 2.86 0.00 90 1015.9
20260502061558 57 32 5.0 17.0 0.00 2.86 0.00 90 1015.8
20260502060058 57 49 7.0 15.0 0.00 2.86 0.00 91 1015.8
20260502054558 56 26 7.0 16.0 0.00 2.86 0.00 91 1015.9
20260502053059 57 32 5.0 13.0 0.00 2.86 0.00 91 1016.2
20260502051603 56 32 6.0 17.0 0.00 2.86 0.00 91 1016.3
20260502050100 56 19 8.0 14.0 0.00 2.86 0.00 92 1016.0
20260502044601 56 25 8.0 18.0 0.00 2.86 2.86 92 1016.0
20260502043058 56 32 6.0 19.0 0.00 2.86 2.86 92 1016.0
20260502041556 56 64 8.0 13.0 0.00 2.86 2.86 92 1015.9
20260502040105 57 12 7.0 12.0 0.00 2.86 2.86 93 1015.8
20260502034558 57 42 6.0 11.0 0.06 2.89 2.86 93 1015.3
20260502033056 57 49 6.0 14.0 0.08 2.89 2.86 93 1015.1
20260502031554 57 29 7.0 13.0 0.09 2.89 2.86 93 1014.6
20260502030056 58 92 7.0 13.0 0.10 2.89 2.86 93 1014.0
20260502024554 59 22 7.0 11.0 0.04 2.87 2.80 93 1014.0
20260502023057 59 26 3.0 10.0 0.02 2.85 2.78 93 1014.2
20260502021556 59 12 5.0 11.0 0.04 2.84 2.77 93 1014.2
20260502020057 59 352 5.0 10.0 0.05 2.83 2.76 93 1014.1
20260502014554 59 350 5.0 9.0 0.10 2.89 2.76 93 1013.8
20260502013131 59 11 6.0 11.0 0.21 2.89 2.76 93 1013.3
20260502011555 59 5 4.0 12.0 0.21 2.86 2.73 93 1012.9
20260502010057 59 46 4.0 11.0 0.20 2.84 2.71 93 1011.6